Theta_e
306 309 310 310 311 312 314 316 315 311 310 310 312 309 305 305 305 305 305 304 304 305 303 302 300 301 300 300 300 299 298 298 297 296 297 298 299 297 295 298 300 298 299
305 306 308 309 310 311 308 307 307 307 307 307 306 306 305 304 303 302 302 303 303 302 300 299 298 299 300 298 297 298 298 297 296 293 293 290 292 293 295 295 297 294 296
304 306 308 307 306 305 305 306 306 306 307 307 306 305 304 304 302 301 300 300 300 300 299 298 298 298 298 297 297 296 295 294 294 294 291 287 285 288 291 292 292 291 292
306 307 305 303 303 304 304 305 306 306 306 306 305 304 302 301 301 299 299 298 299 298 299 299 299 298 298 297 296 297 294 293 291 293 295 292 293 285 284 289 289 290 291
304 305 306 305 305 304 303 304 305 306 306 306 305 303 302 302 301 299 297 297 297 298 299 299 298 297 297 296 295 293 293 293 291 290 291 288 289 288 287 284 287 289 288
305 305 306 306 304 304 303 303 304 305 305 304 304 303 301 299 297 296 297 296 295 295 297 297 296 296 295 295 294 293 292 291 290 290 289 288 288 285 287 287 286 286 287
303 303 304 305 306 304 303 303 303 303 303 302 301 301 299 298 297 296 294 293 293 293 294 295 295 295 295 294 293 292 291 290 289 289 289 288 288 291 291 289 287 286 287
302 304 305 304 303 302 302 301 303 302 302 300 299 300 299 297 296 295 294 293 293 293 293 294 294 294 293 293 292 291 291 290 289 288 288 288 289 290 291 289 287 283 285
299 300 300 301 301 301 300 299 300 300 300 298 297 298 298 296 295 294 293 293 293 294 293 293 293 293 293 293 292 290 290 289 288 288 287 287 288 288 288 287 287 285 281
299 299 299 299 300 300 299 299 299 297 296 296 295 295 295 296 295 294 293 293 293 293 293 292 292 292 292 292 290 289 289 287 287 288 285 283 284 283 283 283 284 284 284
297 297 298 298 298 298 296 296 296 295 294 294 294 294 294 294 293 293 293 293 292 292 293 293 292 292 292 291 290 288 288 285 283 282 282 282 282 282 282 282 282 281 281
297 297 297 297 297 295 295 296 296 295 295 294 293 292 294 294 293 292 292 292 291 292 292 291 289 289 289 288 286 285 284 283 282 281 281 281 284 280 280 279 279 280 280
295 295 296 295 295 297 295 294 294 295 293 293 292 291 291 291 291 292 291 291 292 291 291 292 290 289 288 287 285 284 283 282 281 281 281 280 280 279 279 279 279 280 282
295 295 295 295 296 296 293 292 292 293 293 292 291 291 291 291 291 291 290 290 291 290 291 292 290 289 288 286 284 283 281 281 281 281 281 280 279 278 278 279 279 281 280
294 295 295 295 294 293 291 290 290 291 291 291 291 291 292 291 291 290 290 291 291 291 291 291 290 287 286 284 281 281 281 280 280 281 281 281 281 284 282 280 278 278 278
295 295 294 293 291 290 289 290 289 289 290 291 290 292 291 291 291 291 290 290 290 291 291 285 284 285 285 286 286 285 281 281 280 279 280 280 282 281 282 282 282 281 278
292 292 290 289 289 289 289 288 288 289 288 289 290 291 290 290 290 290 290 289 288 290 285 285 285 284 283 286 286 286 282 281 280 279 279 279 280 280 279 280 281 281 282
291 289 288 288 287 287 287 288 287 287 288 288 289 289 289 289 289 288 287 285 285 287 288 284 283 282 283 285 284 282 278 277 278 278 278 277 277 278 279 279 279 280 280
290 287 287 287 286 286 286 286 285 285 287 287 287 287 288 288 287 286 287 288 288 287 283 283 281 280 279 283 283 280 276 277 276 277 278 277 277 279 281 279 278 278 279
286 286 285 286 285 285 285 284 284 285 286 287 287 287 287 287 286 285 285 288 287 283 282 281 280 281 277 281 281 279 274 270 275 276 277 278 279 280 281 279 278 277 278
286 286 285 284 284 285 286 284 284 284 286 287 287 286 285 284 285 287 287 287 283 281 278 277 278 278 278 277 280 279 274 274 275 275 275 277 279 280 280 280 279 279 279
285 285 284 284 285 285 285 284 283 285 286 286 285 284 284 284 285 287 286 281 280 279 278 267 271 274 275 278 278 279 279 278 273 275 276 278 279 279 279 278 280 279 278
284 285 284 284 285 285 285 284 285 286 285 284 284 283 282 283 282 283 282 280 279 275 274 275 269 272 276 274 278 278 279 278 274 275 277 277 277 277 277 277 278 277 276
284 284 283 283 284 285 286 285 286 285 284 284 284 284 282 281 282 283 282 278 274 271 275 273 272 270 272 272 273 276 272 275 275 273 272 272 275 274 275 275 275 276 276
284 284 284 284 284 285 285 285 285 285 284 284 285 283 281 279 280 282 279 279 278 276 274 273 272 263 262 270 278 277 273 269 273 267 266 268 270 271 272 272 273 273 273
284 284 284 283 284 284 283 284 286 286 284 282 284 283 279 277 279 279 279 282 281 283 283 283 272 269 275 279 280 279 277 276 275 267 263 260 262 266 270 269 270 271 270
Wind_Speed
4 9 11 13 15 10 9 8 8 4 4 5 4 4 4 4 4 5 6 7 5 7 7 5 5 5 4 3 4 3 3 2 4 3 4 3 1 4 5 3 4 6 7
9 10 10 11 10 8 7 7 8 7 5 4 3 3 4 4 4 2 4 6 6 6 5 3 2 3 3 5 5 4 4 2 4 3 2 4 4 3 8 5 3 5 4
11 7 8 6 6 7 7 7 6 7 5 6 4 3 3 2 2 4 3 4 6 5 5 4 4 5 4 4 4 4 5 3 2 3 2 4 3 3 3 7 4 6 6
6 6 6 4 6 5 5 6 5 5 3 4 3 3 3 3 2 3 2 1 3 5 5 5 4 4 3 4 2 2 2 3 4 3 2 2 3 4 5 3 5 7 7
7 7 7 8 6 6 5 5 6 5 4 4 5 4 4 3 2 2 3 2 3 5 4 3 2 2 1 1 2 2 3 1 1 1 2 2 2 2 3 7 5 5 2
6 5 5 5 5 5 5 4 5 4 5 5 5 7 7 6 3 1 1 1 2 1 1 1 1 2 2 2 1 2 2 1 2 2 3 3 3 3 4 6 9 5 5
6 6 7 4 4 5 5 3 4 4 4 6 6 6 6 6 5 3 2 2 2 2 3 2 2 2 2 2 2 2 3 3 3 3 3 3 3 4 5 6 9 5 4
6 5 4 4 5 5 5 4 6 5 5 5 5 4 5 3 4 5 4 4 4 4 4 4 4 5 5 4 4 3 3 4 4 6 4 3 4 3 3 2 3 6 2
4 7 7 6 4 4 3 5 6 5 5 5 4 5 5 5 5 7 5 4 5 4 6 6 6 5 4 5 4 4 5 3 4 5 4 2 3 3 3 2 2 3 6
6 7 6 5 4 3 4 3 3 5 4 3 2 3 6 7 6 5 7 7 6 5 5 5 5 4 5 4 4 4 4 4 4 3 2 1 2 4 3 3 3 3 6
7 6 5 4 4 2 2 2 3 4 3 4 5 7 6 4 5 5 6 6 5 5 4 4 2 4 5 4 4 5 4 1 1 2 3 4 4 3 4 4 4 4 3
5 5 4 4 4 4 4 2 3 4 6 5 5 4 5 5 6 6 6 6 5 5 4 3 4 5 3 6 4 5 3 2 2 4 5 5 5 6 5 4 6 5 5
5 3 2 2 3 3 1 1 4 5 5 5 4 4 5 6 6 7 7 5 6 2 3 5 9 8 6 4 3 3 2 1 3 5 6 6 5 6 5 6 6 5 6
4 1 2 2 4 4 4 5 5 4 4 5 4 4 4 5 5 6 6 5 3 3 2 3 6 9 6 4 3 3 1 3 5 5 6 6 6 6 7 7 6 5 5
2 2 2 4 5 5 4 3 4 4 4 3 3 4 5 6 7 7 7 6 6 3 2 5 6 5 2 1 1 1 3 5 5 6 6 6 9 16 13 7 7 7 7
3 2 4 4 4 5 3 3 3 4 2 1 3 3 5 6 6 7 7 7 5 4 4 4 2 4 2 2 1 4 4 5 5 7 7 7 12 11 15 19 19 15 9
2 4 3 4 3 3 2 2 5 4 4 2 3 4 5 6 6 7 7 7 6 2 4 4 5 2 3 4 9 10 4 4 6 6 7 8 7 13 10 15 18 17 19
1 4 3 2 2 1 3 4 5 5 2 2 3 5 6 6 6 6 6 5 3 2 2 2 3 2 3 8 8 8 5 5 6 7 9 9 10 9 13 11 11 8 10
6 4 4 2 1 4 6 5 5 2 1 3 5 5 5 6 6 6 5 2 1 3 3 3 3 4 4 7 7 5 3 5 7 8 9 10 10 15 19 13 12 11 11
4 3 2 2 4 4 3 2 1 1 3 4 5 5 5 6 6 5 4 3 4 2 4 3 3 5 3 8 10 9 2 4 6 7 9 14 13 19 16 9 8 8 10
4 4 3 2 4 3 3 2 2 4 5 5 5 5 5 6 6 3 4 2 1 3 3 1 1 3 4 4 10 12 2 4 5 6 7 7 17 18 16 14 8 10 8
3 3 4 4 4 5 3 3 4 5 6 5 3 5 5 5 5 3 1 2 3 2 1 2 2 1 2 6 7 11 12 13 3 6 7 6 17 16 15 11 17 16 8
3 2 2 4 5 4 1 3 5 6 6 4 4 4 5 4 4 2 1 1 1 1 2 1 1 2 2 3 9 11 11 12 3 4 9 14 15 14 10 16 17 10 6
1 2 3 5 5 5 4 5 6 6 5 4 4 3 3 5 4 1 1 0 0 1 2 2 2 2 3 3 4 4 3 7 5 5 5 6 8 7 7 8 8 7 7
2 2 3 4 5 5 5 6 8 4 5 6 4 2 3 3 3 2 2 2 3 4 3 3 3 2 3 3 8 7 3 3 3 4 3 3 5 6 6 7 7 7 7
2 3 5 4 5 5 5 6 5 3 3 5 4 3 2 2 3 2 2 5 5 6 4 5 6 3 7 8 11 8 9 10 9 3 2 3 4 4 6 6 6 6 8
Wind_Direction
63 64 65 80 89 75 77 67 67 43 80 41 50 36 66 46 49 59 61 67 69 59 51 41 28 17 17 327 326 302 325 315 324 343 316 278 328 38 354 359 27 13 2
79 70 68 67 74 92 99 88 85 88 89 98 105 109 104 75 95 89 73 61 61 55 65 54 26 3 348 345 344 351 326 319 15 336 284 325 316 352 335 333 9 20 354
107 87 95 103 111 112 114 108 117 113 104 108 101 85 78 74 61 35 36 23 41 39 38 23 8 5 20 350 342 356 6 335 325 20 329 337 288 324 12 327 357 359 355
127 151 155 130 133 148 155 144 139 132 124 134 117 148 173 160 99 127 147 83 64 38 31 37 44 50 50 34 333 14 2 4 343 337 12 323 314 320 323 345 335 348 340
168 153 163 155 149 146 131 149 133 122 142 141 139 125 102 86 104 99 78 49 33 38 40 48 27 31 64 112 72 61 49 47 290 261 320 305 284 267 273 302 293 299 259
161 183 148 130 125 106 91 90 113 111 110 100 108 123 129 131 111 98 52 338 338 355 266 277 195 189 178 171 175 148 137 280 269 258 260 233 264 260 250 290 297 278 281
189 206 149 146 109 91 95 130 125 97 94 105 106 117 124 137 155 179 197 205 243 241 258 242 215 221 215 190 175 232 265 268 277 287 279 247 247 254 275 285 297 310 322
193 147 116 126 91 98 83 105 133 117 113 107 112 126 147 173 189 197 197 209 207 216 227 238 217 226 216 227 228 227 238 263 282 281 282 290 285 294 275 305 308 322 279
99 90 76 70 73 75 117 159 150 141 139 133 143 185 202 195 211 217 200 210 220 224 220 218 219 232 247 256 250 263 273 278 274 271 279 277 306 330 340 309 246 287 308
100 77 73 67 46 41 353 22 112 134 156 172 215 234 235 228 224 210 225 230 243 245 238 250 256 248 241 246 273 274 283 292 296 296 350 352 300 314 323 300 281 251 268
105 92 61 37 33 10 350 141 152 181 213 235 234 239 250 261 243 244 257 253 286 306 284 267 272 274 269 289 267 276 278 262 79 15 340 307 292 281 290 287 274 266 247
96 77 55 14 4 0 8 168 227 236 237 264 288 306 260 261 281 282 288 263 251 270 275 336 267 259 261 246 244 252 157 128 326 310 302 292 307 298 286 276 275 267 258
94 83 58 24 349 318 305 290 314 278 322 297 294 311 326 305 282 275 277 283 251 252 328 4 322 289 256 251 219 151 124 47 283 282 285 285 297 295 289 288 282 272 278
124 123 21 334 332 333 12 11 17 12 343 3 11 5 342 301 321 327 320 280 246 231 302 315 253 268 262 238 182 128 82 287 276 284 277 277 281 282 283 285 274 299 302
67 357 305 330 348 16 37 57 28 7 347 10 38 354 341 343 333 320 301 282 252 234 286 288 275 277 293 234 162 46 292 288 289 286 284 280 285 295 294 299 296 286 278
217 273 6 31 59 85 84 45 350 320 322 49 351 341 339 330 313 301 290 282 266 265 266 299 342 43 17 190 314 299 289 291 292 296 294 289 298 289 297 303 299 289 283
280 344 113 120 101 76 57 306 278 320 339 356 316 313 320 314 315 308 305 294 272 289 53 26 59 55 337 326 339 354 347 322 308 304 304 306 304 308 295 293 294 289 283
192 155 159 147 139 232 277 311 332 320 311 342 329 317 317 310 308 310 325 348 29 56 56 114 84 55 20 15 34 25 5 329 315 310 303 303 302 297 301 299 291 289 285
172 184 196 172 266 333 328 320 321 329 352 317 313 306 312 308 311 323 319 326 337 329 109 105 75 56 26 19 12 355 325 316 310 307 309 308 311 306 308 297 283 282 282
171 174 118 8 351 323 297 182 208 235 312 302 296 311 319 305 300 320 342 317 298 145 117 93 61 83 34 6 1 354 297 295 315 319 314 316 320 316 329 328 309 300 295
110 93 48 347 309 310 300 330 355 316 293 292 304 322 317 308 301 312 323 322 76 103 68 76 55 68 38 351 355 355 288 293 323 320 318 315 324 338 343 350 333 349 346
104 69 39 353 332 337 17 2 312 292 295 290 306 317 319 326 330 274 283 89 125 148 174 29 335 333 319 335 338 348 340 341 309 318 310 316 340 347 353 354 349 351 335
78 53 9 336 346 347 18 312 292 306 304 299 305 304 318 338 334 347 130 143 100 102 269 246 292 285 273 298 324 332 331 346 344 320 331 347 346 348 348 350 354 349 339
63 330 352 351 332 326 313 299 296 292 276 255 272 277 312 324 325 305 44 17 245 267 260 270 263 271 291 287 295 294 306 341 350 339 334 335 340 338 339 348 350 350 348
347 341 342 325 319 346 322 307 301 299 301 300 266 247 266 287 315 324 242 240 250 204 223 233 206 197 286 268 311 352 348 329 349 352 352 344 349 348 350 349 350 352 356
325 334 329 326 325 313 303 304 305 296 302 302 278 248 246 247 240 235 271 267 240 274 305 289 181 236 233 289 331 359 1 1 8 17 353 329 335 336 345 347 343 352 354